Weather History for Black River Falls, WI

Change the Weather History Date:

Thursday, January 31, 2013

  Actual Average (KLSE) Record (KLSE)
Temperature  
Mean Temperature 7 °F 18 °F  
Max Temperature 14 °F 27 °F 52 °F (1989)
Min Temperature 0 °F 9 °F -30 °F (1994)
Degree Days  
Heating Degree Days 58 47  
Month to date heating degree days 1477  
Since 1 July heating degree days 4319  
Cooling Degree Days 0 0  
Month to date cooling degree days 0  
Year to date cooling degree days 0  
Moisture  
Dew Point -1 °F    
Average Humidity 69    
Maximum Humidity 85    
Minimum Humidity 57    
Precipitation  
Precipitation 0.00 in 0.04 in 0.53 in (1881)
Month to date precipitation 1.12  
Year to date precipitation 1.12  
Snow  
Snow 0.00 in 0.40 in 4.70 in (1965)
Month to date snowfall 10.7  
Since 1 July snowfall 26.3  
Snow Depth -    
Sea Level Pressure  
Sea Level Pressure 29.90 in    
Wind  
Wind Speed 10 mph (WNW)    
Max Wind Speed 16 mph    
Max Gust Speed 25 mph    
Visibility 8 miles    
Events Snow    
T = Trace of Precipitation, MM = Missing Value Source: NWS Daily Summary

Daily Weather History Graph

Daily Weather History Graph

Search for Another Location

Airport:

Trip Planner

Search our weather history database for the weather conditions in past years. The results will help you decide how hot, cold, wet, or windy it might be!

Date:

Astronomy

Jan. 31, 2013 Rise Set
Actual Time 7:22 AM CST 5:12 PM CST
Civil Twilight 6:51 AM CST 5:43 PM CST
Nautical Twilight 6:16 AM CST 6:17 PM CST
Astronomical Twilight 5:42 AM CST 6:51 PM CST
Moon 10:28 PM CST (1/31) 9:09 AM CST (1/31)
Length of Visible Light 10h 51m
Length of Day
9h 50m
Waning Gibbous, 79% of the Moon is Illuminated
Jan 31
Waning Gibbous
Feb 3
Last Quarter
Feb 10
New
Feb 17
First Quarter
Feb 25
Full

Hourly Weather History & Observations

Time (CST) Temp. Windchill Dew Point Humidity Pressure Visibility Wind Dir Wind Speed Gust Speed Precip Events Conditions
12:15 AM 14.0 °F 2.9 °F 3.2 °F 62% 29.65 in 10.0 mi NW 8.1 mph 19.6 mph N/A   Overcast
12:35 AM 14.0 °F 2.0 °F 5.0 °F 67% 29.65 in 10.0 mi NW 9.2 mph - N/A   Overcast
12:55 AM 14.0 °F 2.9 °F 5.0 °F 67% 29.65 in 10.0 mi NW 8.1 mph - N/A   Overcast
1:35 AM 14.0 °F 3.9 °F 6.8 °F 73% 29.66 in 4.0 mi WNW 6.9 mph - N/A Snow Light Snow
1:55 AM 12.2 °F 1.7 °F 8.6 °F 85% 29.67 in 1.8 mi WNW 6.9 mph - N/A Snow Light Snow
2:15 AM 12.2 °F -0.2 °F 6.8 °F 79% 29.68 in 4.0 mi WNW 9.2 mph 18.4 mph N/A Snow Light Snow
2:35 AM 12.2 °F -1.0 °F 6.8 °F 79% 29.69 in 4.0 mi West 10.4 mph - N/A Snow Light Snow
3:15 AM 12.2 °F 1.7 °F 5.0 °F 73% 29.70 in 10.0 mi WNW 6.9 mph - N/A   Overcast
3:35 AM 10.4 °F -2.4 °F 3.2 °F 73% 29.70 in 7.0 mi WNW 9.2 mph - N/A   Overcast
3:55 AM 10.4 °F -0.4 °F 3.2 °F 73% 29.70 in 10.0 mi WNW 6.9 mph - N/A   Overcast
4:15 AM 10.4 °F -2.4 °F 3.2 °F 73% 29.71 in 10.0 mi WNW 9.2 mph 17.3 mph N/A   Overcast
4:35 AM 10.4 °F -2.4 °F 3.2 °F 73% 29.71 in 10.0 mi WNW 9.2 mph - N/A   Overcast
4:55 AM 10.4 °F -3.3 °F 3.2 °F 73% 29.71 in 5.0 mi NW 10.4 mph - N/A   Haze
5:15 AM 10.4 °F -0.4 °F 3.2 °F 73% 29.71 in 7.0 mi WNW 6.9 mph - N/A   Overcast
5:35 AM 8.6 °F -3.7 °F 3.2 °F 79% 29.72 in 4.0 mi West 8.1 mph - N/A Snow Light Snow
5:55 AM 10.4 °F -4.8 °F 3.2 °F 73% 29.73 in 5.0 mi West 12.7 mph - N/A Snow Light Snow
6:15 AM 8.6 °F -4.7 °F 1.4 °F 73% 29.73 in 10.0 mi WNW 9.2 mph 19.6 mph N/A   Scattered Clouds
6:35 AM 8.6 °F -4.7 °F 1.4 °F 73% 29.74 in 10.0 mi WNW 9.2 mph - N/A   Mostly Cloudy
6:55 AM 8.6 °F -8.9 °F 1.4 °F 73% 29.76 in 7.0 mi West 16.1 mph 19.6 mph N/A   Overcast
7:15 AM 8.6 °F -7.0 °F 1.4 °F 73% 29.77 in 10.0 mi WNW 12.7 mph 19.6 mph N/A   Overcast
7:35 AM 8.6 °F -7.7 °F 1.4 °F 73% 29.78 in 7.0 mi West 13.8 mph 20.7 mph N/A   Overcast
7:55 AM 6.8 °F -8.6 °F -0.4 °F 72% 29.79 in 10.0 mi WNW 11.5 mph 21.9 mph N/A   Mostly Cloudy
8:15 AM 6.8 °F -8.6 °F -0.4 °F 72% 29.80 in 10.0 mi WNW 11.5 mph 17.3 mph N/A   Scattered Clouds
8:35 AM 6.8 °F -7.8 °F -0.4 °F 72% 29.81 in 10.0 mi WNW 10.4 mph - N/A   Mostly Cloudy
9:15 AM 8.6 °F -6.3 °F -0.4 °F 67% 29.83 in 10.0 mi WNW 11.5 mph 17.3 mph N/A   Overcast
9:35 AM 8.6 °F -7.0 °F -0.4 °F 67% 29.83 in 7.0 mi NW 12.7 mph 21.9 mph N/A   Overcast
9:55 AM 6.8 °F -10.7 °F -0.4 °F 72% 29.84 in 7.0 mi WNW 15.0 mph 25.3 mph N/A   Mostly Cloudy
10:15 AM 8.6 °F -5.5 °F -0.4 °F 67% 29.86 in 7.0 mi WNW 10.4 mph 18.4 mph N/A   Overcast
10:35 AM 8.6 °F -4.7 °F -2.2 °F 62% 29.86 in 10.0 mi WNW 9.2 mph 17.3 mph N/A   Overcast
10:55 AM 8.6 °F -6.3 °F -2.2 °F 62% 29.87 in 10.0 mi NNW 11.5 mph 18.4 mph N/A   Overcast
11:15 AM 8.6 °F -7.0 °F -0.4 °F 67% 29.88 in 7.0 mi WNW 12.7 mph 21.9 mph N/A   Overcast
11:35 AM 8.6 °F -7.0 °F -0.4 °F 67% 29.88 in 5.0 mi WNW 12.7 mph 24.2 mph N/A   Haze
12:15 PM 8.6 °F -7.7 °F -2.2 °F 62% 29.89 in 7.0 mi WNW 13.8 mph 23.0 mph N/A   Overcast
12:35 PM 8.6 °F -6.3 °F -2.2 °F 62% 29.89 in 10.0 mi WNW 11.5 mph 24.2 mph N/A   Overcast
12:55 PM 8.6 °F -7.7 °F -0.4 °F 67% 29.89 in 4.0 mi WNW 13.8 mph 24.2 mph N/A   Haze
1:15 PM 10.4 °F -6.0 °F -2.2 °F 57% 29.90 in 10.0 mi West 15.0 mph 24.2 mph N/A   Overcast
1:35 PM 8.6 °F -6.3 °F -2.2 °F 62% 29.90 in 10.0 mi NW 11.5 mph 23.0 mph N/A   Overcast
1:55 PM 8.6 °F -7.0 °F -2.2 °F 62% 29.91 in 10.0 mi WNW 12.7 mph 23.0 mph N/A   Overcast
2:15 PM 8.6 °F -5.5 °F -2.2 °F 62% 29.92 in 7.0 mi NW 10.4 mph 17.3 mph N/A   Overcast
2:35 PM 8.6 °F -7.0 °F -2.2 °F 62% 29.93 in 7.0 mi WNW 12.7 mph 20.7 mph N/A   Overcast
3:15 PM 8.6 °F -7.7 °F -4.0 °F 57% 29.95 in 10.0 mi WNW 13.8 mph 17.3 mph N/A   Overcast
3:35 PM 6.8 °F -9.3 °F -2.2 °F 67% 29.96 in 7.0 mi NW 12.7 mph 20.7 mph N/A   Overcast
3:55 PM 6.8 °F -10.0 °F -0.4 °F 72% 29.97 in 4.0 mi WNW 13.8 mph 19.6 mph N/A   Haze
4:15 PM 6.8 °F -10.0 °F -2.2 °F 67% 29.98 in 4.0 mi WNW 13.8 mph 21.9 mph N/A   Haze
4:35 PM 5.0 °F -10.8 °F -2.2 °F 72% 29.99 in 5.0 mi West 11.5 mph 19.6 mph N/A   Haze
4:55 PM 5.0 °F -11.6 °F -2.2 °F 72% 30.00 in 4.0 mi WNW 12.7 mph 18.4 mph N/A   Haze
5:15 PM 5.0 °F -11.6 °F -2.2 °F 72% 30.01 in 4.0 mi WNW 12.7 mph 18.4 mph N/A   Haze
5:35 PM 5.0 °F -10.0 °F -4.0 °F 66% 30.02 in 7.0 mi West 10.4 mph 17.3 mph N/A   Overcast
5:55 PM 3.2 °F -11.3 °F -4.0 °F 72% 30.03 in 5.0 mi WNW 9.2 mph - N/A   Haze
6:15 PM 3.2 °F -10.3 °F -4.0 °F 72% 30.04 in 10.0 mi WNW 8.1 mph - N/A   Scattered Clouds
6:35 PM 3.2 °F -10.3 °F -5.8 °F 66% 30.06 in 10.0 mi West 8.1 mph 16.1 mph N/A   Clear
6:55 PM 3.2 °F -10.3 °F -5.8 °F 66% 30.07 in 10.0 mi West 8.1 mph - N/A   Clear
7:15 PM 3.2 °F -9.1 °F -5.8 °F 66% 30.08 in 10.0 mi WNW 6.9 mph - N/A   Clear
7:35 PM 1.4 °F -12.5 °F -5.8 °F 72% 30.08 in 10.0 mi WNW 8.1 mph - N/A   Clear
8:15 PM 1.4 °F -12.5 °F -5.8 °F 72% 30.10 in 10.0 mi WNW 8.1 mph 16.1 mph N/A   Scattered Clouds
8:35 PM 1.4 °F -13.5 °F -5.8 °F 72% 30.11 in 10.0 mi WNW 9.2 mph - N/A   Clear
8:55 PM 1.4 °F -11.3 °F -5.8 °F 72% 30.11 in 10.0 mi WNW 6.9 mph - N/A   Clear
9:15 PM 1.4 °F -13.5 °F -7.6 °F 66% 30.12 in 10.0 mi West 9.2 mph 16.1 mph N/A   Clear
9:35 PM 1.4 °F -13.5 °F -7.6 °F 66% 30.12 in 10.0 mi West 9.2 mph - N/A   Clear
9:55 PM 1.4 °F -13.5 °F -7.6 °F 66% 30.13 in 10.0 mi West 9.2 mph - N/A   Clear
10:15 PM 1.4 °F -13.5 °F -7.6 °F 66% 30.13 in 10.0 mi WNW 9.2 mph - N/A   Clear
10:35 PM 1.4 °F -14.5 °F -7.6 °F 66% 30.14 in 10.0 mi WNW 10.4 mph - N/A   Clear
10:55 PM 1.4 °F -13.5 °F -7.6 °F 66% 30.14 in 10.0 mi WNW 9.2 mph - N/A   Clear
11:15 PM -0.4 °F -18.4 °F -7.6 °F 72% 30.15 in 10.0 mi West 12.7 mph - N/A   Clear
11:35 PM -0.4 °F -15.7 °F -9.4 °F 66% 30.16 in 10.0 mi West 9.2 mph - N/A   Clear
11:55 PM -0.4 °F -16.7 °F -9.4 °F 66% 30.16 in 10.0 mi West 10.4 mph - N/A   Clear